SCD 1 1 22490U 93009B 25342.63975850 .00000883 00000+0 19055-3 0 9998 2 22490 24.9705 303.9966 0041724 281.4311 241.0109 14.45994939733502 TECHSAT 1B (GO-32) 1 25397U 98043D 25342.56228273 .00000208 00000+0 10995-3 0 9997 2 25397 98.9915 325.6780 0002159 63.9120 296.2280 14.24375404424191 SCD 2 1 25504U 98060A 25342.53829503 .00000680 00000+0 13888-3 0 9994 2 25504 24.9931 167.8038 0016588 268.6442 125.3794 14.45419994432717 DLR-TUBSAT 1 25757U 99029B 25342.53199025 .00000303 00000+0 86190-4 0 9998 2 25757 98.6559 326.9159 0013661 205.9399 154.1112 14.52355333405579 TERRA 1 25994U 99068A 25342.63513824 .00001021 00000+0 21750-3 0 9990 2 25994 97.9754 34.4702 0003529 106.0195 10.3787 14.60946141381782 MAROC-TUBSAT 1 27004U 01056D 25342.42161062 -.00000010 00000+0 41254-4 0 9994 2 27004 99.7912 150.7910 0019085 271.6165 117.8718 13.70252579200068 AQUA 1 27424U 02022A 25342.67220838 .00002171 00000+0 44469-3 0 9997 2 27424 98.4032 303.4853 0000936 113.8107 59.1753 14.61795515255435 IRS-P6 (RESOURCESAT-1) 1 28051U 03046A 25342.61449602 .00000410 00000+0 15144-3 0 9999 2 28051 98.2184 23.2127 0063964 193.0822 282.4536 14.36072377153177 SHIYAN-1 (SY-1) 1 28220U 04012A 25342.14425821 .00016338 00000+0 60080-3 0 9991 2 28220 97.8934 43.4119 0005929 343.3198 16.7844 15.27962186181865 AURA 1 28376U 04026A 25342.61194037 .00002134 00000+0 44554-3 0 9999 2 28376 98.3179 292.8195 0001168 93.2768 266.8566 14.60932931138382 IRS-P5 (CARTOSAT-1) 1 28649U 05017A 25342.58654392 .00002692 00000+0 28185-3 0 9995 2 28649 97.5496 9.1839 0001498 48.0026 312.1320 14.90385008115426 SINAH 1 1 28893U 05043D 25342.64962653 .00001037 00000+0 20714-3 0 9996 2 28893 98.2601 111.1960 0015130 149.1539 211.0555 14.63956166 72644 EROS B 1 29079U 06014A 25342.59845473 .00170887 00000+0 16049-2 0 9991 2 29079 97.3479 98.9802 0001604 275.3886 84.7192 15.66616380 90152 RESURS-DK 1 1 29228U 06021A 25342.66291770 .00004863 00000+0 28749-3 0 9999 2 29228 69.9338 112.3734 0007623 262.4591 97.5709 15.12127563 73764 ARIRANG-2 (KOMPSAT-2) 1 29268U 06031A 25342.61462764 .00000789 00000+0 15718-3 0 9997 2 29268 97.8269 171.2889 0013668 322.7953 110.8077 14.64488719 33586 LAPAN-TUBSAT 1 29709U 07001A 25342.60456455 .00001320 00000+0 15872-3 0 9997 2 29709 98.1254 332.6761 0013646 86.5827 273.6948 14.85661716 22853 HAIYANG-1B 1 31113U 07010A 25342.53884016 .00000261 00000+0 11511-3 0 9998 2 31113 98.3310 326.9906 0014433 49.6655 310.5788 14.30963057973368 COSMO-SKYMED 1 1 31598U 07023A 25342.57361629 .00005691 00000+0 51625-3 0 9995 2 31598 97.8834 167.9460 0001058 81.2716 278.8625 14.95717172 1282 TERRASAR-X 1 31698U 07026A 25342.50310039 .00002877 00000+0 14009-3 0 9999 2 31698 97.4451 347.9445 0001723 89.3855 270.7577 15.19158704 24277 WORLDVIEW-1 (WV-1) 1 32060U 07041A 25342.58371310 .00011260 00000+0 45945-3 0 9996 2 32060 97.3842 100.1238 0000780 101.7843 258.3482 15.24584013 13841 YAOGAN-3 1 32289U 07055A 25342.58523578 .00003958 00000+0 41789-3 0 9996 2 32289 97.8368 9.2477 0001420 76.5709 283.5667 14.89829776977479 COSMO-SKYMED 2 1 32376U 07059A 25342.57890502 .00001147 00000+0 15059-3 0 9999 2 32376 97.8812 163.9653 0001526 86.0818 274.0570 14.82158922973765 RADARSAT-2 1 32382U 07061A 25342.64708907 .00000155 00000+0 77169-4 0 9993 2 32382 98.5799 347.2968 0001088 91.6388 268.4920 14.29985788938729 CARTOSAT-2A 1 32783U 08021A 25342.61122729 .00001732 00000+0 24142-3 0 9998 2 32783 97.7936 32.5636 0012116 17.7166 342.4466 14.78926689950632 HUANJING 1A (HJ-1A) 1 33320U 08041A 25342.58139528 .00002985 00000+0 36896-3 0 9999 2 33320 97.6540 331.0533 0020390 47.5772 312.7164 14.83375356930144 HUANJING 1B (HJ-1B) 1 33321U 08041B 25342.60587853 .00002382 00000+0 29708-3 0 9996 2 33321 97.6399 334.7845 0038237 88.9183 271.6412 14.82805678930162 GEOEYE 1 1 33331U 08042A 25342.62598004 .00001258 00000+0 24464-3 0 9995 2 33331 98.1257 53.9580 0002791 295.0673 65.0240 14.64804897922256 THEOS 1 33396U 08049A 25342.59508299 .00000150 00000+0 90527-4 0 9990 2 33396 98.5874 40.8070 0001115 100.4848 259.6455 14.20095298890912 COSMO-SKYMED 3 1 33412U 08054A 25342.61396807 .00008009 00000+0 56272-3 0 9997 2 33412 97.8459 192.9363 0015809 187.9790 172.1187 15.05293374928256 YAOGAN-4 1 33446U 08061A 25342.55449235 .00002935 00000+0 37018-3 0 9998 2 33446 97.9177 272.6947 0013933 337.5968 22.4635 14.82662950917416 GOSAT (IBUKI) 1 33492U 09002A 25342.56974550 .00001808 00000+0 32723-3 0 9995 2 33492 98.0769 91.2311 0000967 88.0959 272.0356 14.67543603903501 DEIMOS-1 1 35681U 09041A 25342.57597039 .00001399 00000+0 21527-3 0 9999 2 35681 97.7153 143.3735 0002705 88.4928 271.6592 14.74943788878781 DUBAISAT-1 1 35682U 09041B 25342.65510959 .00002598 00000+0 39713-3 0 9993 2 35682 97.9790 113.3952 0009818 328.6971 31.3652 14.74586985877013 OCEANSAT-2 1 35931U 09051A 25342.61575611 -.00000147 00000+0 -74881-4 0 9999 2 35931 98.2226 343.6347 0016379 55.7946 304.4770 13.99625607852675 WORLDVIEW-2 (WV-2) 1 35946U 09055A 25342.63175445 .00000404 00000+0 14914-3 0 9996 2 35946 98.4764 53.7733 0005383 76.7754 283.4033 14.37650271848267 SMOS 1 36036U 09059A 25342.49181011 .00000777 00000+0 26204-3 0 9999 2 36036 98.4383 167.6032 0001108 85.1871 274.9444 14.39736080846014 YAOGAN-7 1 36110U 09069A 25342.63378111 .00001367 00000+0 19724-3 0 9993 2 36110 98.0303 224.4054 0023506 295.2737 64.6037 14.77723918861480 TANDEM-X 1 36605U 10030A 25342.56896909 .00002924 00000+0 14235-3 0 9996 2 36605 97.4453 348.0112 0002067 89.3333 270.8138 15.19159019857704 CARTOSAT-2B 1 36795U 10035A 25342.65035472 .00001490 00000+0 20930-3 0 9997 2 36795 97.7858 31.8136 0012912 89.7440 270.5251 14.78781200831692 YAOGAN-10 1 36834U 10038A 25342.61273328 .00003199 00000+0 38525-3 0 9991 2 36834 97.9144 2.4641 0001512 84.8642 68.8647 14.84584384828925 COSMO-SKYMED 4 1 37216U 10060A 25342.59157290 .00001122 00000+0 14747-3 0 9991 2 37216 97.8813 163.9775 0001365 83.0422 277.0946 14.82161711816337 RESOURCESAT-2 1 37387U 11015A 25342.63305238 .00000320 00000+0 16614-3 0 9997 2 37387 98.7882 46.2032 0006614 53.2812 306.8972 14.21595005759106 HAIYANG-2A 1 37781U 11043A 25342.64129807 .00000005 00000+0 47756-4 0 9995 2 37781 99.3378 343.6390 0001667 89.8775 270.2568 13.78834767720428 RASAT 1 37791U 11044D 25342.62094102 .00001288 00000+0 23291-3 0 9995 2 37791 98.0655 71.9400 0021918 77.5211 59.7665 14.67901647765222 SRMSAT 1 37841U 11058D 25342.49164175 .00000566 00000+0 16348-3 0 9992 2 37841 19.9701 133.6623 0011700 266.3108 134.9771 14.11509433730846 PLEIADES 1A 1 38012U 11076F 25342.63367005 .00000874 00000+0 19783-3 0 9994 2 38012 98.1829 55.4656 0001323 78.5366 59.0429 14.58556142744216 ZIYUAN 1-02C (ZY 1-02C) 1 38038U 11079A 25342.65890825 .00001004 00000+0 34596-3 0 9993 2 38038 98.4340 48.7478 0007035 149.8532 329.3594 14.38005941731828 ZIYUAN 3-1 (ZY 3-1) 1 38046U 12001A 25342.62955260 .00084787 00000+0 76835-3 0 9991 2 38046 97.1756 48.9535 0001987 10.0118 350.1183 15.67778864774321 ARIRANG-3 (KOMPSAT-3) 1 38338U 12025B 25342.63588939 .00001223 00000+0 25521-3 0 9997 2 38338 98.3318 297.1945 0005648 352.1569 7.9542 14.61705038723509 EXACTVIEW-1 (ADS-1B) 1 38709U 12039C 25342.60067676 .00000360 00000+0 17406-3 0 9995 2 38709 98.9636 90.9039 0010891 6.2058 353.9253 14.24905658695565 SPOT 6 1 38755U 12047A 25342.62216375 .00000842 00000+0 19061-3 0 9993 2 38755 98.1579 47.4825 0001087 102.6854 257.4467 14.58598010705278 PLEIADES 1B 1 39019U 12068A 25342.64135401 .00000881 00000+0 19938-3 0 9998 2 39019 98.1800 55.3578 0001222 87.3633 272.7707 14.58547577693070 GOKTURK 2 1 39030U 12073A 25342.57938431 .00001254 00000+0 19223-3 0 9995 2 39030 97.6903 184.4376 0000901 105.7302 254.4008 14.75283203696405 LANDSAT 8 1 39084U 13008A 25342.60487819 .00000872 00000+0 20349-3 0 9992 2 39084 98.2077 50.7393 0001125 86.7381 273.3946 14.57108482670140 SARAL 1 39086U 13009A 25342.60728351 .00000280 00000+0 11871-3 0 9997 2 39086 98.5504 166.5916 0002780 116.5669 243.5800 14.32755109668317 GAOFEN-1 1 39150U 13018A 25342.63599023 .00001615 00000+0 23849-3 0 9995 2 39150 97.9332 53.3677 0018003 155.8585 204.3473 14.76524077680126 VNREDSAT 1 1 39160U 13021B 25342.59162018 .00001375 00000+0 26570-3 0 9992 2 39160 97.9379 38.0119 0001307 83.1365 276.9987 14.64914340672384 ARIRANG-5 (KOMPSAT-5) 1 39227U 13042A 25342.61964682 .00002937 00000+0 21394-3 0 9993 2 39227 97.6148 166.9828 0003779 68.9037 291.2592 15.04531830675209 SKYSAT-A 1 39418U 13066C 25342.63647536 .00006202 00000+0 36753-3 0 9993 2 39418 97.4108 32.9696 0020671 251.8865 108.0114 15.11556407659686 DUBAISAT-2 1 39419U 13066D 25342.60148694 .00008251 00000+0 53507-3 0 9994 2 39419 97.4448 333.1363 0010962 336.0728 23.9990 15.08294498657643 GPM-CORE 1 39574U 14009C 25342.61263613 .00018510 00000+0 38841-3 0 9997 2 39574 64.9738 226.5080 0010508 269.7350 90.2587 15.45413700668377 SENTINEL-1A 1 39634U 14016A 25342.60187196 .00000401 00000+0 94715-4 0 9995 2 39634 98.1803 347.9044 0001247 89.3522 270.7821 14.59200468622220 KAZEOSAT 1 1 39731U 14024A 25342.62703928 .00000518 00000+0 17071-3 0 9999 2 39731 98.3440 54.6267 0001085 100.0193 260.1119 14.42059459611091 ALOS-2 1 39766U 14029A 25342.82031258 .00003404 00000+0 46270-3 0 9994 2 39766 97.9230 77.7223 0001453 101.1392 258.9983 14.79457487623439 KAZEOSAT 2 1 40010U 14033A 25342.58262268 .00001457 00000+0 17593-3 0 9995 2 40010 97.5514 187.1119 0007495 221.7196 138.3449 14.85158516620665 HODOYOSHI-4 1 40011U 14033B 25342.57264730 .00003052 00000+0 34110-3 0 9998 2 40011 97.5416 171.6622 0022920 214.7563 145.2158 14.87459593620467 DEIMOS-2 1 40013U 14033D 25342.62574198 .00003913 00000+0 38213-3 0 9992 2 40013 97.6069 218.5617 0000968 95.3799 264.7531 14.92948213609288 HODOYOSHI-3 1 40015U 14033F 25342.44429928 .00002935 00000+0 34897-3 0 9991 2 40015 97.6198 148.4663 0031819 262.7037 97.0561 14.84784577619316 SPOT 7 1 40053U 14034A 25342.63194967 .00001165 00000+0 24833-3 0 9990 2 40053 98.0912 44.8021 0001536 94.0308 266.1069 14.60726769609318 SKYSAT-B 1 40072U 14037D 25342.58293420 .00003431 00000+0 38681-3 0 9996 2 40072 98.3607 286.0694 0005818 162.6374 197.5041 14.87304035617628 WORLDVIEW-3 (WV-3) 1 40115U 14048A 25342.59826302 .00002289 00000+0 27139-3 0 9994 2 40115 97.8620 54.9306 0004442 199.0707 161.0343 14.85496953613629 GAOFEN-2 1 40118U 14049A 25342.61887457 .00001691 00000+0 22723-3 0 9999 2 40118 98.0391 41.7801 0008446 124.9040 235.2967 14.80598588611030 YAOGAN-21 1 40143U 14053A 25342.61044298 .00009590 00000+0 40273-3 0 9996 2 40143 97.1757 26.1025 0009972 54.4963 305.7204 15.23603281625919 YAOGAN-22 1 40275U 14063A 25342.37307129 -.00000006 00000+0 10768-3 0 9991 2 40275 100.7419 125.7309 0005925 258.7958 101.2488 13.15522491534722 ASNARO 1 40298U 14070A 25342.59025248 .00013915 00000+0 66030-3 0 9992 2 40298 97.3652 58.6385 0005369 133.7391 226.4290 15.19360810615069 YAOGAN-24 1 40310U 14072A 25342.60958251 .00001951 00000+0 28941-3 0 9996 2 40310 98.1225 113.6811 0014569 150.7966 209.4061 14.76164939595604 CBERS 4 1 40336U 14079A 25342.61265208 .00000321 00000+0 12618-3 0 9999 2 40336 98.3316 40.7707 0001563 119.3209 240.8134 14.35515699576618 YAOGAN-26 1 40362U 14088A 25342.57357864 .00024419 00000+0 63117-3 0 9997 2 40362 97.0646 343.3960 0006685 41.9276 318.2481 15.39076869608309 SMAP 1 40376U 15003A 25342.58415368 .00001129 00000+0 22781-3 0 9990 2 40376 98.1290 347.3679 0001209 88.0830 272.0510 14.63337619579741 KOMPSAT-3A 1 40536U 15014A 25342.59684568 .00025715 00000+0 57034-3 0 9997 2 40536 97.6790 316.7151 0004479 135.4469 224.7139 15.43717367592310 SENTINEL-2A 1 40697U 15028A 25342.58530585 .00000351 00000+0 15047-3 0 9995 2 40697 98.5698 55.1773 0001034 94.9796 265.1505 14.30825272546477 GAOFEN-8 1 40701U 15030A 25342.60703876 .00023588 00000+0 62392-3 0 9994 2 40701 97.6912 160.5469 0011426 152.4045 207.7808 15.38339313582077 CARBONITE 1 (CBNT-1) 1 40718U 15032D 25342.59969611 .00004378 00000+0 54764-3 0 9993 2 40718 97.6403 163.8265 0014166 195.1352 164.9440 14.82715213561099 YAOGAN-27 1 40878U 15040A 25342.59582144 -.00000034 00000+0 23133-4 0 9994 2 40878 100.1008 332.4034 0007652 296.9723 63.0609 13.16060060492592 GAOFEN-9 01 1 40894U 15047A 25342.61371922 .00002258 00000+0 28621-3 0 9997 2 40894 97.6547 21.7474 0028687 47.3422 313.0203 14.82407748551955 YAOGAN-28 1 41026U 15064A 25342.63369850 .00011133 00000+0 45794-3 0 9995 2 41026 97.2809 120.5424 0012228 139.3880 220.8272 15.24245641561622 YAOGAN-29 1 41038U 15069A 25342.63601459 .00000953 00000+0 12427-3 0 9992 2 41038 98.0222 5.7944 0000361 348.0206 12.0998 14.82876275542384 KENT RIDGE 1 1 41167U 15077B 25342.38120670 .00006745 00000+0 25732-3 0 9995 2 41167 14.9790 243.4838 0008551 69.0212 291.1024 15.21584138551976 GAOFEN-4 1 41194U 15083A 25342.58781078 -.00000332 00000+0 00000+0 0 9993 2 41194 0.1597 81.0353 0003530 105.4236 208.4534 1.00271346 36611 JASON-3 1 41240U 16002A 25342.63370654 -.00000052 00000+0 38557-4 0 9999 2 41240 66.0390 166.4569 0007132 270.5019 89.5183 12.87626339462712 SENTINEL-3A 1 41335U 16011A 25342.60343991 .00000315 00000+0 14817-3 0 9998 2 41335 98.6212 47.6728 0000962 92.8922 267.2369 14.26744468510882 ZIYUAN 3-2 (ZY 3-2) 1 41556U 16033A 25342.64293324 .00010487 00000+0 46916-3 0 9991 2 41556 97.4044 56.8773 0012411 265.1242 94.8577 15.21412094529014 CARTOSAT-2C 1 41599U 16040A 25342.64734029 .00008002 00000+0 38237-3 0 9995 2 41599 97.4767 39.9396 0010944 77.6924 282.5535 15.19234745524789 SKYSAT-C1 1 41601U 16040C 25342.60738414 .00011860 00000+0 38029-3 0 9992 2 41601 96.9825 19.8540 0002829 27.1323 333.0067 15.32474891528640 LAPAN-A3 1 41603U 16040E 25342.57858860 .00006343 00000+0 21063-3 0 9998 2 41603 97.1429 340.2860 0010176 349.6263 10.4767 15.31502020525623 BIROS 1 41604U 16040F 25342.63349278 .00185324 00000+0 67624-3 0 9994 2 41604 97.0685 13.9056 0003071 155.8564 204.2853 15.87952948528075 GAOFEN-3 1 41727U 16049A 25342.64164564 .00000174 00000+0 66141-4 0 9996 2 41727 98.4040 348.2905 0001481 68.9770 291.1578 14.42212377491189 SKYSAT-C4 1 41771U 16058B 25342.64483064 .00018741 00000+0 43998-3 0 9997 2 41771 96.9373 8.0317 0001121 131.9875 228.1470 15.42072055516048 SKYSAT-C5 1 41772U 16058C 25342.64186110 .00013027 00000+0 38263-3 0 9991 2 41772 97.0760 26.5564 0002248 143.4055 216.7344 15.35248104514536 SKYSAT-C2 1 41773U 16058D 25342.64525252 .00014974 00000+0 41366-3 0 9996 2 41773 97.0360 7.3456 0004649 44.7513 315.4107 15.37129465515736 SKYSAT-C3 1 41774U 16058E 25342.63006537 .00023741 00000+0 51864-3 0 9992 2 41774 96.9300 16.5677 0001595 106.0505 254.0920 15.44179872516621 ALSAT 1B 1 41785U 16059C 25342.59138400 .00000928 00000+0 15499-3 0 9991 2 41785 97.7815 354.5602 0010611 115.5213 244.7094 14.72069557492535 PATHFINDER 1 1 41787U 16059E 25342.56310707 .00001550 00000+0 28104-3 0 9991 2 41787 97.8138 345.5305 0030055 93.8632 266.6011 14.67310713491755 SCATSAT 1 1 41790U 16059H 25342.59729723 .00003002 00000+0 40402-3 0 9999 2 41790 98.1466 39.2159 0056079 141.0920 219.4348 14.78915908 73418 GOKTURK 1A 1 41875U 16073A 25342.60385390 .00001078 00000+0 22061-3 0 9991 2 41875 98.1436 235.0244 0001233 83.3627 276.7715 14.62773028480968 RESOURCESAT-2A 1 41877U 16074A 25342.61539417 .00000356 00000+0 18255-3 0 9994 2 41877 98.7763 52.4954 0001133 273.5938 86.5110 14.21597173467225 CARTOSAT-2D 1 41948U 17008A 25342.61552614 .00007237 00000+0 34699-3 0 9990 2 41948 97.4390 40.1754 0004318 175.1332 184.9946 15.19195726488646 SENTINEL-2B 1 42063U 17013A 25342.57810659 .00000341 00000+0 14672-3 0 9994 2 42063 98.5723 55.0826 0001138 98.0466 262.0846 14.30813870457383 CARTOSAT-2E 1 42767U 17036C 25342.63190126 .00007620 00000+0 36456-3 0 9998 2 42767 97.4558 40.2719 0002315 256.8387 103.2589 15.19260130469217 FORMOSAT-5 1 42920U 17049A 25342.63552502 .00000545 00000+0 14873-3 0 9991 2 42920 98.2456 57.0359 0010049 309.4405 50.5900 14.51002086439047 SENTINEL-5P 1 42969U 17064A 25342.53766129 .00000202 00000+0 11699-3 0 9995 2 42969 98.7779 281.1592 0000956 87.0871 273.0415 14.19515996422514 SKYSAT-C11 1 42987U 17068A 25342.34656889 .00027139 00000+0 53514-3 0 9999 2 42987 97.4146 119.7309 0000929 106.2293 253.9059 15.47170930453637 SKYSAT-C10 1 42988U 17068B 25342.35340485 .00013754 00000+0 44833-3 0 9995 2 42988 97.4263 113.1931 0005306 115.9492 244.2297 15.31919089453129 SKYSAT-C9 1 42989U 17068C 25342.32719494 .00017672 00000+0 50697-3 0 9991 2 42989 97.4193 112.5471 0010689 101.9087 258.3356 15.35879402453400 SKYSAT-C8 1 42990U 17068D 25342.64991096 .00015907 00000+0 50442-3 0 9995 2 42990 97.4284 112.6330 0001879 4.8072 355.3188 15.32781270453081 SKYSAT-C7 1 42991U 17068E 25342.60926136 .00014887 00000+0 48074-3 0 9999 2 42991 97.4291 113.6369 0007827 70.0654 290.1430 15.32187319453140 SKYSAT-C6 1 42992U 17068F 25342.65113143 .00015266 00000+0 50596-3 0 9995 2 42992 97.4324 114.1207 0005233 93.7189 266.4650 15.31358473453138 CARTOSAT-2F 1 43111U 18004A 25342.59890313 .00007390 00000+0 35414-3 0 9995 2 43111 97.4318 40.3031 0000726 143.0028 217.1257 15.19211109438390 GAOFEN-1 02 1 43259U 18031A 25342.59080545 .00001899 00000+0 28034-3 0 9994 2 43259 98.0812 40.3786 0001478 228.1563 131.9521 14.76468436414570 GAOFEN-1 03 1 43260U 18031B 25342.63680667 .00001887 00000+0 27889-3 0 9996 2 43260 98.0805 40.3018 0002266 339.8149 20.2970 14.76425012414579 GAOFEN-1 04 1 43262U 18031D 25342.61249095 .00001892 00000+0 27942-3 0 9998 2 43262 98.0814 40.4463 0001156 59.8972 300.2352 14.76438122414566 SENTINEL-3B 1 43437U 18039A 25342.64678803 .00000320 00000+0 15029-3 0 9994 2 43437 98.6270 47.8905 0001534 106.9432 253.1917 14.26740797396953 GAOFEN-5 01 1 43461U 18043A 25342.46907538 .00001030 00000+0 22282-3 0 9994 2 43461 98.4319 305.3619 0001248 355.9820 4.1369 14.60403389403859 GAOFEN-6 1 43484U 18048A 25342.58436714 .00001664 00000+0 24539-3 0 9990 2 43484 97.8037 46.9907 0013280 76.0891 284.1796 14.76555847405265 GAOFEN-11 01 1 43585U 18063A 25342.61971424 .00018565 00000+0 34378-3 0 9995 2 43585 97.1560 45.5888 0004566 332.2202 27.8805 15.49044738410783 ICESAT-2 1 43613U 18070A 25342.61139717 .00016903 00000+0 61405-3 0 9991 2 43613 92.0045 239.6231 0002088 159.3412 200.7922 15.28238837403352 HYSIS 1 43719U 18096A 25342.58354745 .00002519 00000+0 35114-3 0 9998 2 43719 98.0099 45.5815 0001512 62.1422 297.9942 14.78629097379256 KAZSTSAT 1 43783U 18099AB 25342.59707505 .00002944 00000+0 24539-3 0 9990 2 43783 97.4556 17.9599 0006134 347.1722 12.9344 14.99334294382748 SAUDISAT 5A 1 43831U 18102A 25342.59318332 .00009417 00000+0 37286-3 0 9990 2 43831 97.3354 42.8643 0011817 88.8871 271.3721 15.25579050386590 SAUDISAT 5B 1 43833U 18102C 25342.58462866 .00008885 00000+0 34819-3 0 9990 2 43833 97.3449 45.5871 0012536 91.4241 268.8434 15.25933554386708 GAOFEN-10R 1 44622U 19066A 25342.60934244 .00003260 00000+0 40982-3 0 9994 2 44622 98.0276 290.0995 0008070 53.3445 306.8509 14.82771194334134 CARTOSAT-3 1 44804U 19081A 25342.61274040 .00006592 00000+0 31458-3 0 9994 2 44804 97.4585 42.2481 0013957 100.0342 260.2468 15.19318391334533 GAOFEN-12 01 1 44819U 19082A 25342.62083447 .00001022 00000+0 13972-3 0 9995 2 44819 97.8126 349.0100 0001187 260.9521 99.1557 14.80650606325899 CSG-1 1 44873U 19092A 25342.60422280 .00001269 00000+0 16588-3 0 9995 2 44873 97.8812 163.9906 0001464 85.7346 274.4035 14.82156250323248 NEMO-HD 1 46277U 20061F 25342.60146408 .00013568 00000+0 33971-3 0 9998 2 46277 97.2211 41.7523 0002126 60.9920 299.1540 15.40196834292609 SENTINEL-6A 1 46984U 20086A 25342.58021994 -.00000050 00000+0 46976-4 0 9992 2 46984 66.0392 170.9479 0007738 269.2212 90.7916 12.80930453235912 GAOFEN-12 02 1 48079U 21026A 25342.61878484 .00001053 00000+0 14387-3 0 9995 2 48079 97.9850 336.6451 0003449 109.0593 251.0993 14.80668206253564 PLEIADES NEO 3 1 48268U 21034A 25342.54146225 .00000160 00000+0 26887-4 0 9994 2 48268 97.8951 55.0427 0001257 97.3480 262.7876 14.81671885249426 PLEIADES NEO 4 1 49070U 21073E 25342.84534576 .00000630 00000+0 86617-4 0 9991 2 49070 97.8951 55.3382 0001327 95.8767 264.2597 14.81674316233185 LANDSAT 9 1 49260U 21088A 25342.63925253 .00000926 00000+0 21557-3 0 9990 2 49260 98.2099 50.8097 0001114 94.4212 265.7114 14.57124628223258 CSG-2 1 51444U 22008A 25342.57046436 .00000937 00000+0 12422-3 0 9993 2 51444 97.8812 163.9566 0001489 87.8125 272.3258 14.82157714208351 GAOFEN-12 03 1 52912U 22069A 25342.64656497 .00002211 00000+0 30188-3 0 9999 2 52912 97.8491 230.0900 0002248 69.3142 290.8311 14.79595430186437 SWOT 1 54754U 22173A 25342.56267549 .00000134 00000+0 92838-4 0 9991 2 54754 77.6102 292.6285 0000342 123.8896 236.2288 14.00173825152471 GAOFEN-12 04 1 57654U 23123A 25342.61495726 .00002629 00000+0 35703-3 0 9993 2 57654 97.9120 258.4348 0001397 73.3922 286.7443 14.79682375124448 PARS 1 1 59065U 24039Q 25342.64218851 .00014947 00000+0 36533-3 0 9991 2 59065 97.4637 313.4886 0012684 84.3745 275.8947 15.40835928 99250 RESURS-P 4 1 59371U 24061A 25342.59274563 .00006096 00000+0 19956-3 0 9998 2 59371 97.2544 289.0077 0001812 53.3675 306.7733 15.32035918 94573 LEGION 1 1 59625U 24081A 25342.64082532 .00007881 00000+0 40876-3 0 9999 2 59625 97.5213 57.3144 0004298 334.8011 25.3012 15.16418278 88656 LEGION 2 1 59626U 24081B 25342.60790254 .00007808 00000+0 40478-3 0 9990 2 59626 97.5217 57.3687 0005885 311.2899 48.7827 15.16430889 88654 ALOS-4 (DAICHI-4) 1 60182U 24123A 25342.83966743 .00003921 00000+0 53163-3 0 9996 2 60182 97.9223 77.7429 0001441 99.3201 260.8173 14.79472164 77737 LEGION 3 1 60452U 24146A 25342.47216527 .00007260 00000+0 38735-3 0 9997 2 60452 45.0027 333.0094 0014386 175.3215 184.7800 15.15692656 73087 LEGION 4 1 60453U 24146B 25342.60470841 .00007689 00000+0 40912-3 0 9999 2 60453 45.0387 64.0378 0009826 289.5049 70.4769 15.15758817 71950 SENTINEL-2C 1 60989U 24157A 25342.61320024 .00000366 00000+0 15645-3 0 9993 2 60989 98.5686 55.1551 0001148 97.1414 262.9900 14.30815431 65737 IONOSFERA-M 1 1 61735U 24199A 25342.60801623 .00000163 00000+0 92724-4 0 9996 2 61735 98.7413 212.4878 0001154 27.4247 332.6991 14.22712795100605 IONOSFERA-M 2 1 61736U 24199B 25342.64266812 .00000166 00000+0 93847-4 0 9996 2 61736 98.7412 212.4348 0001546 115.4460 244.6878 14.22714940103734 BIOMASS 1 63772U 25090A 25342.52669832 .00002765 00000+0 49588-3 0 9994 2 63772 98.0696 167.5980 0001297 79.3672 280.7678 14.67533647 32722 GOSAT-GW (IBUKI GW) 1 64694U 25141A 25342.55527238 .00002125 00000+0 38288-3 0 9996 2 64694 98.0423 278.1441 0001494 82.5530 277.5845 14.67564592 23883 IONOSFERA-M 3 1 64876U 25155A 25342.55994119 .00000183 00000+0 10323-3 0 9991 2 64876 98.5779 304.5445 0002327 66.5891 293.5531 14.21439510 19325 IONOSFERA-M 4 1 64877U 25155B 25342.59501041 .00000177 00000+0 10045-3 0 9998 2 64877 98.5777 304.4981 0001685 67.5192 292.6164 14.21440598 19329 MICROCARB 1 64899U 25156A 25342.64021786 .00001481 00000+0 24317-3 0 9998 2 64899 98.0029 58.0513 0016871 157.3471 202.8485 14.72047752 19939 CO3D 3 1 64900U 25156B 25342.56485048 .00009518 00000+0 44229-3 0 9990 2 64900 97.4342 58.9921 0001360 109.9602 250.1780 15.20197087 20578 CO3D 4 1 64901U 25156C 25342.56500172 .00009641 00000+0 44794-3 0 9991 2 64901 97.4341 58.9924 0001048 223.0496 137.0658 15.20197844 20571 CO3D 2 1 64902U 25156D 25342.86077235 .00010138 00000+0 47065-3 0 9991 2 64902 97.4345 59.1823 0000916 85.3648 274.7692 15.20214055 20614 CO3D 1 1 64903U 25156E 25342.79510406 .00008628 00000+0 40129-3 0 9991 2 64903 97.4342 59.1176 0000952 98.0130 262.1214 15.20198157 20604 SENTINEL-6B 1 66514U 25264A 25342.58450293 -.00000033 00000+0 11898-3 0 9999 2 66514 66.0385 171.0841 0021039 268.3306 91.5301 12.84032003 2753